• Join FlightAware (Why Join?)
  • Login
  • US Flag 
12:18AM EDT


 

Airport Tracker/Info


-or-


 

Live Flight TrackerFlight Track Log ✈ EJA982 ✈ 19-Jun-2013 ✈ KSHR - KLAS

Flight Track Log - Related Links

Times and Time Zones

All times are in EDT time to prevent confusion due to time zone crossing. See the EJA982 flight status page for this flight to view local times or setup timezone preferences in your user account.

Time Position Orientation Groundspeed Altitude Reporting Facility
EDT Latitude Longitude Course Direction KTS MPH feet Rate Location/Type
04:54PM 44.5344 -107.0728 216° Southwest 367 422 15,400  Level Salt Lake Center
04:55PM 44.4572 -107.1661 221° Southwest 332 382 18,500 2,640 Climbing Salt Lake Center
04:56PM 44.3894 -107.2403 218° Southwest 328 377 20,900 1,920 Climbing Salt Lake Center
04:57PM 44.2287 -107.5127 219° Southwest  Level FlightAware Approximate
04:57PM 44.3192 -107.3244 221° Southwest 333 383 22,500  Level Salt Lake Center
04:58PM 44.1413 -107.6087 216° Southwest  Level FlightAware Approximate
04:58PM 44.2236 -107.4347 220° Southwest 358 412 24,200  Level Salt Lake Center
04:59PM 44.0509 -107.6992 216° Southwest  Level FlightAware Approximate
04:59PM 44.1433 -107.5286 220° Southwest 386 444 25,700  Level Salt Lake Center
05:00PM 44.0469 -107.6389 219° Southwest 399 459 27,300 1,500 Climbing Salt Lake Center
05:01PM 43.9622 -107.7364 220° Southwest 411 473 28,800 1,380 Climbing Salt Lake Center
05:02PM 43.8758 -107.8347 219° Southwest 418 481 30,200 1,500 Climbing Salt Lake Center
05:03PM 43.7694 -107.9458 217° Southwest 426 490 31,900 1,320 Climbing Salt Lake Center
05:04PM 43.6767 -108.0403 216° Southwest 431 496 33,000 480 Climbing Salt Lake Center
05:05PM 43.5633 -108.1581 217° Southwest 453 521 33,000  Level Salt Lake Center
05:06PM 43.4622 -108.2611 217° Southwest 468 539 33,000 360 Level Salt Lake Center
05:07PM 43.3469 -108.3808 217° Southwest 467 537 33,800 1,260 Climbing Salt Lake Center
05:08PM 43.2511 -108.4778 216° Southwest 453 521 35,700 1,860 Climbing Salt Lake Center
05:09PM 43.1414 -108.5894 217° Southwest 442 509 37,700 1,080 Climbing Salt Lake Center
05:10PM 43.0467 -108.6853 216° Southwest 442 509 38,000 120 Climbing Salt Lake Center
05:11PM 42.9492 -108.7847 217° Southwest 455 524 38,000  Level Salt Lake Center
05:12PM 42.8406 -108.8931 216° Southwest 433 498 38,000  Level Salt Lake Center
05:13PM 42.7486 -108.9847 216° Southwest 428 493 38,000  Level Salt Lake Center
05:14PM 42.6394 -109.0947 217° Southwest 436 502 38,000  Level Salt Lake Center
05:15PM 42.5467 -109.1858 216° Southwest 433 498 38,000  Level Salt Lake Center
05:16PM 42.4403 -109.2908 216° Southwest 427 491 38,000  Level Salt Lake Center
05:17PM 42.3497 -109.3792 216° Southwest 422 486 38,000  Level Salt Lake Center
05:18PM 42.2439 -109.4828 216° Southwest 421 484 38,000  Level Salt Lake Center
05:19PM 42.1531 -109.5725 216° Southwest 423 487 38,000  Level Salt Lake Center
05:20PM 42.0456 -109.6767 216° Southwest 428 493 38,000  Level Salt Lake Center
05:21PM 41.9531 -109.7647 215° Southwest 428 493 38,000  Level Salt Lake Center
05:22PM 41.8453 -109.8694 216° Southwest 431 496 38,000  Level Salt Lake Center
05:23PM 41.7503 -109.9603 216° Southwest 438 504 38,000  Level Salt Lake Center
05:24PM 41.6394 -110.0661 216° Southwest 440 506 38,000  Level Salt Lake Center
05:25PM 41.5447 -110.1564 216° Southwest 440 506 38,000  Level Salt Lake Center
05:27PM 41.4511 -110.2447 215° Southwest 434 499 38,000  Level Salt Lake Center
05:28PM 41.3403 -110.3489 215° Southwest 436 502 38,000  Level Salt Lake Center
05:29PM 41.2450 -110.4403 216° Southwest 441 507 38,000  Level Salt Lake Center
05:30PM 41.1319 -110.5461 215° Southwest 445 512 38,000  Level Salt Lake Center
05:31PM 41.0247 -110.6467 215° Southwest 451 519 38,000  Level Salt Lake Center
05:32PM 40.9236 -110.7411 215° Southwest 445 512 38,000  Level Salt Lake Center
05:33PM 40.8208 -110.8347 215° Southwest 447 514 38,000  Level Salt Lake Center
05:34PM 40.7200 -110.9283 215° Southwest 442 509 38,000  Level Salt Lake Center
05:35PM 40.6192 -111.0225 215° Southwest 442 509 38,000  Level Salt Lake Center
05:36PM 40.5175 -111.1150 215° Southwest 443 510 38,000  Level Salt Lake Center
05:37PM 40.3967 -111.2258 215° Southwest 442 509 38,000  Level Salt Lake Center
05:38PM 40.2944 -111.3169 214° Southwest 442 509 38,000 240 Level Salt Lake Center
05:39PM 40.1950 -111.4078 215° Southwest 435 501 38,600 960 Climbing Salt Lake Center
05:40PM 40.0967 -111.4967 215° Southwest 429 494 40,000 660 Climbing Salt Lake Center
05:41PM 39.9928 -111.5892 214° Southwest 439 505 40,000  Level Salt Lake Center
05:42PM 39.8922 -111.6792 214° Southwest 452 520 40,000  Level Salt Lake Center
05:43PM 39.7875 -111.7739 215° Southwest 457 526 40,000  Level Salt Lake Center
05:44PM 39.6606 -111.8878 215° Southwest 460 529 40,000  Level Salt Lake Center
05:45PM 39.5575 -111.9775 214° Southwest 444 511 40,000  Level Salt Lake Center
05:46PM 39.4600 -112.0658 215° Southwest 428 493 40,000  Level Salt Lake Center
05:47PM 39.3606 -112.1514 214° Southwest 427 491 40,000  Level Salt Lake Center
05:48PM 39.2653 -112.2381 215° Southwest 419 482 40,000  Level Salt Lake Center
05:49PM 39.1692 -112.3203 214° Southwest 420 483 40,000  Level Salt Lake Center
05:50PM 39.0539 -112.4214 214° Southwest 420 483 40,000 -60 Level Salt Lake Center
05:51PM 38.9553 -112.5053 213° Southwest 426 490 39,900 -540 Descending Salt Lake Center
05:52PM 38.8581 -112.5903 214° Southwest 425 489 39,000 -900 Descending Salt Lake Center
05:53PM 38.7603 -112.6756 214° Southwest 426 490 38,100 -1,080 Descending Salt Lake Center
05:54PM 38.6664 -112.7561 214° Southwest 413 475 36,800 -1,020 Descending Salt Lake Center
05:55PM 38.5719 -112.8350 213° Southwest 409 471 36,000 -480 Descending Salt Lake Center
05:56PM 38.4586 -112.9319 214° Southwest 409 471 35,900 -900 Descending Salt Lake Center
05:57PM 38.3575 -113.0164 213° Southwest 432 497 34,200 -1,740 Descending Salt Lake Center
05:58PM 38.2417 -113.0892 206° Southwest 462 532 32,400 -1,080 Descending Salt Lake Center
06:00PM 38.1261 -113.1603 206° Southwest 465 535 32,000 -240 Descending Salt Lake Center
06:01PM 38.0122 -113.2286 205° Southwest 458 527 32,000  Level Salt Lake Center
06:02PM 37.9011 -113.2953 205° Southwest 449 517 32,000  Level Salt Lake Center
06:03PM 37.7672 -113.3767 206° Southwest 448 516 32,000  Level Salt Lake Center
06:04PM 37.6553 -113.4439 205° Southwest 449 517 32,000  Level Salt Lake Center
06:04PM 37.5661 -113.4975 205° Southwest 449 517 32,000  Level Los Angeles Center
06:05PM 37.4528 -113.5639 205° Southwest 450 518 32,000 -720 Level Los Angeles Center
06:06PM 37.3378 -113.6317 205° Southwest 457 526 30,600 -2,160 Descending Los Angeles Center
06:07PM 37.2181 -113.7025 205° Southwest 474 545 27,600 -2,400 Descending Los Angeles Center
06:09PM 37.1111 -113.7678 206° Southwest 427 491 25,700 -1,800 Descending Los Angeles Center
06:10PM 37.0053 -113.8303 205° Southwest 423 487 23,900 -1,980 Descending Los Angeles Center
06:11PM 36.8803 -113.9039 205° Southwest 436 502 21,700 -2,040 Descending Los Angeles Center
06:12PM 36.7633 -113.9717 205° Southwest 436 502 19,700 -1,740 Descending Los Angeles Center
06:13PM 36.6611 -114.0319 205° Southwest 417 480 18,200 -1,740 Descending Los Angeles Center
06:14PM 36.5639 -114.1056 211° Southwest 415 478 16,200 -2,040 Descending Los Angeles Center
06:15PM 36.5122 -114.2253 242° Southwest 419 482 14,500 -1,860 Descending Los Angeles Center
06:16PM 36.4556 -114.3492 240° Southwest 386 444 12,700 -1,200 Descending Los Angeles Center
06:17PM 36.4106 -114.4478 240° Southwest 322 371 12,000 -840 Descending Los Angeles Center
06:18PM 36.3597 -114.5400 236° Southwest 283 326 11,000 -1,020 Descending Los Angeles Center
06:19PM 36.3186 -114.6181 237° Southwest 286 329 10,000 -1,260 Descending Los Angeles Center
06:20PM 36.2753 -114.6967 236° Southwest 285 328 8,600 -1,140 Descending Los Angeles Center
06:21PM 36.2386 -114.7650 236° Southwest 235 270 7,800 -840 Descending Los Angeles Center
06:22PM 36.2042 -114.8247 234° Southwest 234 269 7,000 -480 Descending Los Angeles Center
06:23PM 36.1686 -114.8897 236° Southwest 230 265 6,900 -420 Descending Los Angeles Center
06:24PM 36.1383 -114.9481 237° Southwest 203 234 6,200 -900 Descending Los Angeles Center
06:25PM 36.1358 -115.0153 267° West 192 221 5,100 -1,140 Descending Los Angeles Center
06:26PM 36.1394 -115.0728 274° West 171 197 4,000 -1,080 Descending Los Angeles Center
06:26PM 36.1408 -115.0931 275° West 182 209 3,600 -900 Descending Los Angeles Center
06:27PM 36.1303 -115.1292 250° West 148 170 3,000 -780 Descending Los Angeles Center
06:28PM 36.0844 -115.1592 208° Southwest 144 166 2,100 -600 Descending Los Angeles Center
06:30PM 36.0801 -115.1523 219° Southwest  Level Estimated